Regional Weather Roundup
Issued by NWS Goodland, KS

Home | Current Version | Previous Version | Text Only | Print | Product List | Glossary Off
Versions: 1 2 3 4 5 6 7 8 9 10 11 12 13 14 15 16 17 18 19 20 21 22 23 24 25 26 27 28 29 30 31 32 33 34 35 36 37 38 39 40 41 42 43 44 45 46 47 48 49 50

000
ASUS43 KGLD 261759
RWRGLD

GOODLAND FORECAST AREA HOURLY WEATHER ROUNDUP
NATIONAL WEATHER SERVICE GOODLAND KS
1100 AM MST THU FEB 26 2015

...OFFICIAL OBSERVATIONS...

CITY           SKY/WX    TMP DP  RH WIND       PRES   REMARKS
GOODLAND KS    CLOUDY    17   5  59 NE8       30.34R
HILL CITY KS   SUNNY     19  -1  41 N16G24    30.45F WCI   4
IMPERIAL NEB     N/A     16   1  51 N12       30.37R WCI   3
MCCOOK NEB     MOSUNNY   21  -1  38 N10G20    30.42S WCI  10
AKRON CO       LGT SNOW  13   8  81 E8        30.24S
BURLINGTON CO  LGT SNOW  16   9  74 NE10      30.28S WCI   4
LIMON CO       LGT SNOW  13   9  84 SE9       30.18S FOG
$$

...UNOFFICIAL OBSERVATIONS...

CITY           SKY/WX    TMP DP  RH WIND       PRES   REMARKS
COLBY KS       PTSUNNY   18   7  62 N10       30.38S WCI   6
GOVE KS          N/A     17  32 100 MISG        N/A
LENORA KS        N/A     17  32 100 S16         N/A  WCI   2
NORTON KS      MOSUNNY   18  -6  35 N16       30.43S WCI   3
SHARON SPRINGS   N/A     19  12  73 NE10        N/A  WCI   7
KIT CARSON CO    N/A     17  12  80 MISG        N/A
YUMA CO          N/A     14   5  67 CALM        N/A
$$


USA.gov is the U.S. government's official web portal to all federal, state and local government web resources and services.